• Join FlightAware (Why Join?)
  • Login
  • US Flag 
10:02PM EST


 

Airport Tracker/Info


-or-


 

Live Flight TrackerFlight Track Log ✈ VH-AMB ✈ 06-Feb-2013 ✈ YWLM / NTL - YSSY / SYD

Flight Track Log - Related Links

Times and Time Zones

All times are in EST time to prevent confusion due to time zone crossing. See the VH-AMB flight status page for this flight to view local times or setup timezone preferences in your user account.

Time Position Orientation Groundspeed Altitude Reporting Facility
EST Latitude Longitude Course Direction KTS MPH feet Rate Location/Type
07:30AM -32.8880 151.6392 58° Northeast 167 192 6,800  Level Aus ATC (RADAR)
07:30AM -32.8860 151.6430 242° Southwest 172 198 6,500 375 Descending FlightAware
07:30AM -32.8910 151.6310 244° Southwest 166 191 6,900 1,467 Climbing FlightAware
07:31AM -32.9030 151.6060 240° Southwest 172 198 7,600 1,350 Climbing FlightAware
07:31AM -32.9060 151.5970 248° West 173 199 7,800 1,650 Climbing FlightAware
07:31AM -32.9180 151.5720 240° Southwest 174 200 8,700 1,636 Climbing FlightAware
07:32AM -32.9270 151.5500 244° Southwest 182 209 9,300 1,886 Climbing FlightAware
07:33AM -32.9450 151.5110 241° Southwest 167 192 10,900 2,384 Climbing FlightAware
07:33AM -32.9574 151.4838 241° Southwest 156 180 12,200 1,650 Climbing Aus ATC (RADAR)
07:33AM -32.9590 151.4780 241° Southwest 183 211 12,000 -231 Descending FlightAware
07:34AM -32.9770 151.4380 242° Southwest 220 253 12,000  Level FlightAware
07:35AM -32.9990 151.3880 242° Southwest 225 259 12,000 154 Level FlightAware
07:35AM -33.0187 151.3438 242° Southwest 226 260 12,200  Climbing Aus ATC (RADAR)
07:35AM -33.0210 151.3370 242° Southwest 229 264 12,000 -231 Descending FlightAware
07:36AM -33.0410 151.2920 242° Southwest 230 265 12,000  Level FlightAware
07:37AM -33.0650 151.2420 240° Southwest 233 268 12,000  Level FlightAware
07:37AM -33.0920 151.2200 214° Southwest 223 257 12,000  Level FlightAware
07:38AM -33.1300 151.2170 184° South 229 264 12,000 176 Level FlightAware
07:38AM -33.1711 151.2195 184° South 232 267 12,200  Climbing Aus ATC (RADAR)
07:39AM -33.1810 151.2200 184° South 232 267 12,000 -211 Descending FlightAware
07:39AM -33.2250 151.2190 181° South 231 266 12,000  Level FlightAware
07:40AM -33.2730 151.2170 182° South 231 266 12,000 176 Level FlightAware
07:41AM -33.3036 151.2240 182° South 227 261 12,200  Climbing Aus ATC (RADAR)
07:41AM -33.3010 151.2230 182° South 231 266 12,000 -324 Descending FlightAware
07:41AM -33.3360 151.2360 163° South 223 257 12,000 207 Level FlightAware
07:42AM -33.3663 151.2463 163° South 241 277 12,200 -240 Climbing Aus ATC (RADAR)
07:42AM -33.3890 151.2550 163° South 237 273 11,800 -985 Descending FlightAware
07:43AM -33.4310 151.2700 163° South 238 274 11,100 -1,050 Descending FlightAware
07:43AM -33.4730 151.2860 162° South 235 270 10,400 -1,029 Descending FlightAware
07:44AM -33.5040 151.2980 162° South 233 268 9,900 -982 Descending FlightAware
07:44AM -33.5300 151.3070 164° South 220 253 9,500 -1,050 Descending FlightAware
07:45AM -33.5450 151.3120 164° South 219 252 9,200 -1,200 Descending FlightAware
07:45AM -33.5750 151.3230 163° South 217 250 8,600 -1,091 Descending FlightAware
07:45AM -33.6010 151.3320 164° South 216 249 8,200 -1,050 Descending FlightAware
07:46AM -33.6160 151.3370 164° South 222 255 7,900 -1,200 Descending FlightAware
07:46AM -33.6450 151.3470 164° South 221 254 7,300 -1,067 Descending FlightAware
07:46AM -33.6600 151.3500 171° South 213 245 7,100 -1,050 Descending FlightAware
07:47AM -33.6860 151.3530 175° South 213 245 6,600 -1,038 Descending FlightAware
07:47AM -33.7179 151.3558 175° South 223 257 6,200 -1,200 Descending Aus ATC (RADAR)
07:47AM -33.7160 151.3550 175° South 214 246 6,000 -1,286 Descending FlightAware
07:48AM -33.7420 151.3580 175° South 227 261 5,600 -982 Descending FlightAware
07:48AM -33.7730 151.3630 172° South 231 266 5,100 -1,091 Descending FlightAware
07:49AM -33.8010 151.3670 173° South 228 262 4,600 -1,200 Descending FlightAware
07:49AM -33.8350 151.3710 174° South 242 278 4,000 -1,038 Descending FlightAware
07:50AM -33.8642 151.3730 174° South 246 283 3,700 -1,000 Descending Aus ATC (RADAR)
07:50AM -33.8680 151.3730 174° South 239 275 3,500 -1,333 Descending FlightAware
07:50AM -33.8780 151.3740 175° South 240 276 3,300 -1,200 Descending FlightAware
07:50AM -33.9150 151.3750 179° South 241 277 2,700 -1,067 Descending FlightAware
07:51AM -33.9310 151.3690 197° South 245 282 2,500 -1,050 Descending FlightAware
07:51AM -33.9560 151.3560 203° Southwest 231 266 2,000 -900 Descending FlightAware
07:51AM -33.9710 151.3480 204° Southwest 227 261 1,900  Descending FlightAware
07:52AM -33.9994 151.3324 204° Southwest 213 245 2,000  Climbing Aus ATC (RADAR)
07:52AM -33.9980 151.3330 204° Southwest 200 230 1,900 -214 Descending FlightAware
07:52AM -34.0210 151.3210 203° Southwest 213 245 1,900  Level FlightAware
07:53AM -34.0460 151.3030 211° Southwest 197 227 1,900  Level FlightAware
07:53AM -34.0600 151.2820 231° Southwest 190 219 1,900 -109 Level FlightAware
07:54AM -34.0670 151.2510 255° West 186 214 1,800 -400 Descending FlightAware
07:54AM -34.0640 151.2220 277° West 163 188 1,500 -327 Descending FlightAware
07:55AM -34.0560 151.2050 300° West 134 154 1,500 -150 Level FlightAware
07:55AM -34.0470 151.2000 335° Northwest 131 151 1,400 -533 Descending FlightAware
07:55AM -34.0290 151.1970 352° North 131 151 1,100 -655 Descending FlightAware
07:56AM -34.0150 151.1940 350° North 121 139 800 -522 Descending FlightAware
07:56AM -33.9991 151.1897 350° North 131 151 700 -400 Descending Aus ATC (RADAR)
07:56AM -33.9970 151.1890 350° North 121 139 600 -529 Descending FlightAware
07:57AM -33.9830 151.1860 350° North 102 117 400 -471 Descending FlightAware
07:57AM -33.9683 151.1817 350° North 108 124 200 -462 Descending Aus ATC (RADAR)
07:57AM -33.9690 151.1820 350° North 97 112 -3,000 Descending FlightAware
07:58AM -33.9580 151.1790 347° North 74 85  Level FlightAware
07:58AM -33.9540 151.1780 348° North 54 62  Level FlightAware
07:58AM -33.9480 151.1760 345° North 37 43  Level FlightAware
07:58AM -33.9470 151.1760 360° North 32 37  Level FlightAware
07:59AM -33.9450 151.1770 23° Northeast 23 26  Level FlightAware
07:59AM -33.9430 151.1770 360° North 18 21  Level FlightAware
07:59AM -33.9410 151.1770 360° North 19 22  Level FlightAware
08:00AM -33.9390 151.1760 337° Northwest 14 16  Level FlightAware
08:00AM -33.9390 151.1770 90° East 16 18  Level FlightAware